Time,TemperatureF,DewpointF,PressureIn,WindDirection,WindDirectionDegrees,WindSpeedMPH,WindSpeedGustMPH,Humidity,HourlyPrecipIn,Conditions,Clouds,dailyrainin,SolarRadiationWatts/m^2,SoftwareType,DateUTC
2013-04-29 00:01:00,45.0,33.0,-100.00,SW,233,12.0,26.0,63,0.00,,,0.00,1.000000,,2013-04-29 07:01:00,
2013-04-29 00:11:00,45.0,33.0,-100.00,SW,233,12.0,26.0,63,0.00,,,0.00,1.000000,,2013-04-29 07:11:00,
2013-04-29 00:21:00,45.0,33.0,-100.00,SW,233,12.0,26.0,63,0.00,,,0.00,1.000000,,2013-04-29 07:21:00,
2013-04-29 00:52:00,45.0,34.0,-100.00,SW,220,12.0,32.0,64,0.00,,,0.00,1.000000,,2013-04-29 07:52:00,
2013-04-29 01:02:00,45.0,34.0,-100.00,SW,220,12.0,32.0,64,0.00,,,0.00,1.000000,,2013-04-29 08:02:00,
2013-04-29 01:11:00,45.0,34.0,-100.00,SW,220,12.0,32.0,64,0.00,,,0.00,1.000000,,2013-04-29 08:11:00,
2013-04-29 01:21:00,45.0,34.0,-100.00,SW,220,12.0,32.0,64,0.00,,,0.00,1.000000,,2013-04-29 08:21:00,
2013-04-29 01:42:00,43.0,36.0,-100.00,SW,217,10.0,19.0,76,0.00,,,0.00,1.000000,,2013-04-29 08:42:00,
2013-04-29 01:52:00,43.0,36.0,-100.00,SW,217,10.0,19.0,76,0.00,,,0.00,1.000000,,2013-04-29 08:52:00,
2013-04-29 02:01:00,43.0,36.0,-100.00,SW,217,10.0,19.0,76,0.00,,,0.00,1.000000,,2013-04-29 09:01:00,
2013-04-29 02:11:00,43.0,36.0,-100.00,SW,217,10.0,19.0,76,0.00,,,0.00,1.000000,,2013-04-29 09:11:00,
2013-04-29 02:21:00,43.0,36.0,-100.00,SW,217,10.0,19.0,76,0.00,,,0.00,1.000000,,2013-04-29 09:21:00,
2013-04-29 02:53:00,42.0,38.0,-100.00,SSW,199,10.0,19.0,87,0.00,,,0.00,1.000000,,2013-04-29 09:53:00,
2013-04-29 03:02:00,42.0,38.0,-100.00,SSW,199,10.0,19.0,87,0.00,,,0.00,1.000000,,2013-04-29 10:02:00,
2013-04-29 03:12:00,42.0,38.0,-100.00,SSW,199,10.0,19.0,87,0.00,,,0.00,1.000000,,2013-04-29 10:12:00,
2013-04-29 03:22:00,42.0,38.0,-100.00,SSW,199,10.0,19.0,87,0.00,,,0.00,1.000000,,2013-04-29 10:22:00,
2013-04-29 03:52:00,41.0,40.0,-100.00,SSW,201,10.0,18.0,98,0.00,,,0.00,1.000000,,2013-04-29 10:52:00,
2013-04-29 04:02:00,41.0,40.0,-100.00,SSW,201,10.0,18.0,98,0.00,,,0.00,1.000000,,2013-04-29 11:02:00,
2013-04-29 04:12:00,41.0,40.0,-100.00,SSW,201,10.0,18.0,98,0.00,,,0.00,1.000000,,2013-04-29 11:12:00,
2013-04-29 04:21:00,41.0,40.0,-100.00,SSW,201,10.0,18.0,98,0.00,,,0.00,1.000000,,2013-04-29 11:21:00,
2013-04-29 04:42:00,42.0,41.0,-100.00,SSW,203,9.0,17.0,96,0.00,,,0.00,1.000000,,2013-04-29 11:42:00,
2013-04-29 04:52:00,42.0,41.0,-100.00,SSW,203,9.0,17.0,96,0.00,,,0.00,1.000000,,2013-04-29 11:52:00,
2013-04-29 05:01:00,42.0,41.0,-100.00,SSW,203,9.0,17.0,96,0.00,,,0.00,1.000000,,2013-04-29 12:01:00,
2013-04-29 05:11:00,42.0,41.0,-100.00,SSW,203,9.0,17.0,96,0.00,,,0.00,1.000000,,2013-04-29 12:11:00,
2013-04-29 05:21:00,42.0,41.0,-100.00,SSW,203,9.0,17.0,96,0.00,,,0.00,1.000000,,2013-04-29 12:21:00,
2013-04-29 05:52:00,42.0,40.0,-100.00,SSW,210,10.0,22.0,92,0.00,,,0.00,1.000000,,2013-04-29 12:52:00,
2013-04-29 06:01:00,42.0,40.0,-100.00,SSW,210,10.0,22.0,92,0.00,,,0.00,1.000000,,2013-04-29 13:01:00,
2013-04-29 06:11:00,42.0,40.0,-100.00,SSW,210,10.0,22.0,92,0.00,,,0.00,1.000000,,2013-04-29 13:11:00,
2013-04-29 06:21:00,42.0,40.0,-100.00,SSW,210,10.0,22.0,92,0.00,,,0.00,1.000000,,2013-04-29 13:21:00,
2013-04-29 06:42:00,42.0,39.0,-100.00,SSW,212,10.0,22.0,90,0.00,,,0.00,2.000000,,2013-04-29 13:42:00,
2013-04-29 06:52:00,42.0,39.0,-100.00,SSW,212,10.0,22.0,90,0.00,,,0.00,2.000000,,2013-04-29 13:52:00,
2013-04-29 07:01:00,42.0,39.0,-100.00,SSW,212,10.0,22.0,90,0.00,,,0.00,2.000000,,2013-04-29 14:01:00,
2013-04-29 07:11:00,42.0,39.0,-100.00,SSW,212,10.0,22.0,90,0.00,,,0.00,2.000000,,2013-04-29 14:11:00,
2013-04-29 07:21:00,42.0,39.0,-100.00,SSW,212,10.0,22.0,90,0.00,,,0.00,2.000000,,2013-04-29 14:21:00,
2013-04-29 07:42:00,41.0,38.0,-100.00,SSW,211,10.0,23.0,90,0.00,,,0.00,19.000000,,2013-04-29 14:42:00,
2013-04-29 07:52:00,41.0,38.0,-100.00,SSW,211,10.0,23.0,90,0.00,,,0.00,19.000000,,2013-04-29 14:52:00,
2013-04-29 08:01:00,41.0,38.0,-100.00,SSW,211,10.0,23.0,90,0.00,,,0.00,19.000000,,2013-04-29 15:01:00,
2013-04-29 08:12:00,41.0,38.0,-100.00,SSW,211,10.0,23.0,90,0.00,,,0.00,19.000000,,2013-04-29 15:12:00,
2013-04-29 08:21:00,41.0,38.0,-100.00,SSW,211,10.0,23.0,90,0.00,,,0.00,19.000000,,2013-04-29 15:21:00,
2013-04-29 08:43:00,42.0,39.0,-100.00,SSW,213,8.0,18.0,90,0.00,,,0.00,63.000000,,2013-04-29 15:43:00,
2013-04-29 08:53:00,42.0,39.0,-100.00,SSW,213,8.0,18.0,90,0.00,,,0.00,63.000000,,2013-04-29 15:53:00,
2013-04-29 09:02:00,42.0,39.0,-100.00,SSW,213,8.0,18.0,90,0.00,,,0.00,63.000000,,2013-04-29 16:02:00,
2013-04-29 09:12:00,42.0,39.0,-100.00,SSW,213,8.0,18.0,90,0.00,,,0.00,63.000000,,2013-04-29 16:12:00,
2013-04-29 09:23:00,42.0,39.0,-100.00,SSW,213,8.0,18.0,90,0.00,,,0.00,63.000000,,2013-04-29 16:23:00,
2013-04-29 09:52:00,45.0,40.0,-100.00,SW,224,10.0,17.0,81,0.00,,,0.00,285.000000,,2013-04-29 16:52:00,
2013-04-29 10:02:00,45.0,40.0,-100.00,SW,224,10.0,17.0,81,0.00,,,0.00,285.000000,,2013-04-29 17:02:00,
2013-04-29 10:12:00,45.0,40.0,-100.00,SW,224,10.0,17.0,81,0.00,,,0.00,285.000000,,2013-04-29 17:12:00,
2013-04-29 10:22:00,45.0,40.0,-100.00,SW,224,10.0,17.0,81,0.00,,,0.00,285.000000,,2013-04-29 17:22:00,
2013-04-29 10:52:00,47.0,37.0,-100.00,SW,232,15.0,31.0,67,0.00,,,0.00,653.000000,,2013-04-29 17:52:00,
2013-04-29 11:01:00,47.0,37.0,-100.00,SW,232,15.0,31.0,67,0.00,,,0.00,653.000000,,2013-04-29 18:01:00,
2013-04-29 11:13:00,47.0,37.0,-100.00,SW,232,15.0,31.0,67,0.00,,,0.00,653.000000,,2013-04-29 18:13:00,
2013-04-29 11:22:00,47.0,37.0,-100.00,SW,232,15.0,31.0,67,0.00,,,0.00,653.000000,,2013-04-29 18:22:00,
2013-04-29 11:52:00,51.0,35.0,-100.00,SW,220,8.0,25.0,54,0.00,,,0.00,724.000000,,2013-04-29 18:52:00,
2013-04-29 12:01:00,51.0,35.0,-100.00,SW,220,8.0,25.0,54,0.00,,,0.00,724.000000,,2013-04-29 19:01:00,
2013-04-29 12:11:00,51.0,35.0,-100.00,SW,220,8.0,25.0,54,0.00,,,0.00,724.000000,,2013-04-29 19:11:00,
2013-04-29 12:21:00,51.0,35.0,-100.00,SW,220,8.0,25.0,54,0.00,,,0.00,724.000000,,2013-04-29 19:21:00,
2013-04-29 12:42:00,53.0,32.0,-100.00,SW,223,8.0,18.0,45,0.00,,,0.00,819.000000,,2013-04-29 19:42:00,
2013-04-29 12:52:00,53.0,32.0,-100.00,SW,223,8.0,18.0,45,0.00,,,0.00,819.000000,,2013-04-29 19:52:00,
2013-04-29 13:02:00,53.0,32.0,-100.00,SW,223,8.0,18.0,45,0.00,,,0.00,819.000000,,2013-04-29 20:02:00,
2013-04-29 13:11:00,53.0,32.0,-100.00,SW,223,8.0,18.0,45,0.00,,,0.00,819.000000,,2013-04-29 20:11:00,
2013-04-29 13:21:00,53.0,32.0,-100.00,SW,223,8.0,18.0,45,0.00,,,0.00,819.000000,,2013-04-29 20:21:00,
2013-04-29 13:52:00,53.0,27.0,-100.00,SW,229,11.0,22.0,36,0.00,,,0.00,889.000000,,2013-04-29 20:52:00,
2013-04-29 14:01:00,53.0,27.0,-100.00,SW,229,11.0,22.0,36,0.00,,,0.00,889.000000,,2013-04-29 21:01:00,
2013-04-29 14:11:00,53.0,27.0,-100.00,SW,229,11.0,22.0,36,0.00,,,0.00,889.000000,,2013-04-29 21:11:00,
2013-04-29 14:21:00,53.0,27.0,-100.00,SW,229,11.0,22.0,36,0.00,,,0.00,889.000000,,2013-04-29 21:21:00,
2013-04-29 14:53:00,55.0,26.0,-100.00,WSW,238,9.0,23.0,32,0.00,,,-99.99,910.000000,,2013-04-29 21:53:00,
2013-04-29 15:02:00,55.0,26.0,-100.00,WSW,238,9.0,23.0,32,0.00,,,-99.99,910.000000,,2013-04-29 22:02:00,
2013-04-29 15:13:00,55.0,26.0,-100.00,WSW,238,9.0,23.0,32,0.00,,,-99.99,910.000000,,2013-04-29 22:13:00,
2013-04-29 15:23:00,55.0,26.0,-100.00,WSW,238,9.0,23.0,32,0.00,,,-99.99,910.000000,,2013-04-29 22:23:00,
2013-04-29 15:42:00,54.0,28.0,-100.00,WSW,241,9.0,20.0,37,0.00,,,0.00,854.000000,,2013-04-29 22:42:00,
2013-04-29 15:52:00,54.0,28.0,-100.00,WSW,241,9.0,20.0,37,0.00,,,0.00,854.000000,,2013-04-29 22:52:00,
2013-04-29 16:02:00,54.0,28.0,-100.00,WSW,241,9.0,20.0,37,0.00,,,0.00,854.000000,,2013-04-29 23:02:00,
2013-04-29 16:11:00,54.0,28.0,-100.00,WSW,241,9.0,20.0,37,0.00,,,0.00,854.000000,,2013-04-29 23:11:00,
2013-04-29 16:22:00,54.0,28.0,-100.00,WSW,241,9.0,20.0,37,0.00,,,0.00,854.000000,,2013-04-29 23:22:00,
2013-04-29 16:52:00,52.0,25.0,-100.00,WSW,239,9.0,24.0,34,0.00,,,0.00,686.000000,,2013-04-29 23:52:00,
2013-04-29 17:01:00,52.0,25.0,-100.00,WSW,239,9.0,24.0,34,0.00,,,0.00,686.000000,,2013-04-30 00:01:00,
2013-04-29 17:11:00,52.0,25.0,-100.00,WSW,239,9.0,24.0,34,0.00,,,0.00,686.000000,,2013-04-30 00:11:00,
2013-04-29 17:21:00,52.0,25.0,-100.00,WSW,239,9.0,24.0,34,0.00,,,0.00,686.000000,,2013-04-30 00:21:00,
2013-04-29 18:52:00,48.0,24.0,-100.00,WSW,240,7.0,19.0,38,-99.99,,,0.00,402.000000,,2013-04-30 01:52:00,
2013-04-29 19:01:00,48.0,24.0,-100.00,WSW,240,7.0,19.0,38,-99.99,,,0.00,402.000000,,2013-04-30 02:01:00,
2013-04-29 19:11:00,48.0,24.0,-100.00,WSW,240,7.0,19.0,38,-99.99,,,0.00,402.000000,,2013-04-30 02:11:00,
2013-04-29 19:21:00,48.0,24.0,-100.00,WSW,240,7.0,19.0,38,-99.99,,,0.00,402.000000,,2013-04-30 02:21:00,
2013-04-29 21:52:00,35.0,23.0,-100.00,SSW,213,9.0,16.0,60,-99.99,,,0.00,1.000000,,2013-04-30 04:52:00,
2013-04-29 22:02:00,35.0,23.0,-100.00,SSW,213,9.0,16.0,60,-99.99,,,0.00,1.000000,,2013-04-30 05:02:00,
2013-04-29 22:11:00,35.0,23.0,-100.00,SSW,213,9.0,16.0,60,-99.99,,,0.00,1.000000,,2013-04-30 05:11:00,
2013-04-29 22:21:00,35.0,23.0,-100.00,SSW,213,9.0,16.0,60,-99.99,,,0.00,1.000000,,2013-04-30 05:21:00,
2013-04-29 23:42:00,32.0,24.0,-100.00,SSW,204,6.0,9.0,73,-99.99,,,0.00,1.000000,,2013-04-30 06:42:00,
2013-04-29 23:52:00,32.0,24.0,-100.00,SSW,204,6.0,9.0,73,-99.99,,,0.00,1.000000,,2013-04-30 06:52:00,